User: anonymous   Login
Location: Cornospital
(48.0620°N, 3.3837°W)
Time: 21:49:48
(UTC+00:00)
Language:

SKCUBE - Orbit

View from above orbital plane
View from above orbital plane
View from above satellite
View from above satellite

Ground track
Ground track

The orbit data is extracted from the following two-line orbital elements,

1 42789U 17036AA  22022.59972664  .00005481  00000-0  21192-3 0  9999
2 42789  97.2224  70.3273 0011968 117.6603 242.5853 15.26559565254806
Epoch (UTC): 22 January 2022 14:23:36
Eccentricity: 0.0011968
inclination: 97.2224°
perigee height: 478 km
apogee height: 494 km
right ascension of ascending node: 70.3273°
argument of perigee: 117.6603°
revolutions per day: 15.26559565
mean anomaly at epoch: 242.5853°
orbit number at epoch: 25480

The dashed part of the orbit path shows where the satellite is in the earth's shadow,  

DLR